Flag for Romania Weather past 2 weeks in Brăila, Romania

Now
88 °F

Scattered clouds.


Feels Like: 87 °F
Forecast: 65 / 87 °F
Wind: 2 mph from Northeast

Location: Galati

Current Time: Jul 22, 2014 at 5:17:32 PM

Latest Report: Jul 22, 2014 at 4:00 PM


Visibility: 13 mi

Pressure: 29.78 "Hg

Humidity: 37%

Dew point: 59 °F

Location of BrăilaLocation

Historic Weather in Brăila — Graph

°F

Brăila temperature yesterday

Maximum temperature yesterday: 90 °F (at 4:00 PM)
Minimum temperature yesterday: 64 °F (at 6:00 AM)
Average temperature yesterday: 78 °F

Past Weeks' High & Low Weather Summary

 TemperatureHumidityPressure
High91 °F (Jul 7, 4:00 PM)98% (Jul 19, 9:00 AM)30.02 "Hg (Jul 19, 9:00 AM)
Low63 °F (Jul 12, 6:00 AM)29% (Jul 7, 4:00 PM)29.55 "Hg (Jul 11, 5:00 PM)
Average75 °F67%29.85 "Hg
* Reported Jul 7 4:00 PM — Jul 22 4:00 PM, Brăila, Weather by CustomWeather, © 2014

Note: Actual official high and low records may vary slightly from our data, if they occured in-between our weather recording intervals... More about our weather records

Advertising

Brăila weather history for previous 24 hours

 ConditionsComfort  
Time TempWeatherWind HumidityBarometerVisibility
4:00 PM
Jul 22
88 °FScattered clouds.2 mph37%29.78 "Hg12 mi
3:00 PM90 °FScattered clouds.3 mph37%29.78 "Hg12 mi
2:00 PM89 °FPassing clouds.2 mph43%29.80 "Hg12 mi
1:00 PM89 °FPassing clouds.2 mph43%29.80 "Hg12 mi
12:00 PM85 °FPassing clouds.2 mph48%29.81 "Hg12 mi
11:00 AM85 °FPassing clouds.1 mph54%29.82 "Hg12 mi
10:00 AM80 °FPassing clouds.1 mph60%29.82 "Hg12 mi
9:00 AM74 °FPassing clouds.2 mph70%29.81 "Hg6 mi
8:00 AM71 °FSunny.2 mph76%29.80 "Hg12 mi
7:00 AM69 °FSunny.2 mph81%29.80 "Hg12 mi
6:00 AM69 °FSunny.2 mph86%29.80 "Hg12 mi
5:00 AM69 °FClear.No wind87%29.80 "Hg12 mi
4:00 AM70 °FClear.No wind77%29.80 "Hg12 mi
3:00 AM72 °FClear.No wind77%29.80 "Hg12 mi
2:00 AM75 °FClear.1 mph62%29.81 "Hg12 mi
1:00 AM74 °FClear.1 mph71%29.82 "Hg12 mi
12:00 AM75 °FClear.No wind68%29.81 "Hg12 mi
11:00 PM
Jul 21
77 °FClear.No wind56%29.81 "Hg12 mi
10:00 PM79 °FPassing clouds.No wind52%29.81 "Hg12 mi
9:00 PM82 °FPassing clouds.1 mph43%29.80 "Hg12 mi
8:00 PM87 °FPassing clouds.2 mph30%29.80 "Hg12 mi
7:00 PM89 °FPassing clouds.2 mph31%29.80 "Hg12 mi
6:00 PM90 °FScattered clouds.3 mph30%29.80 "Hg12 mi
5:00 PM89 °FScattered clouds.1 mph30%29.81 "Hg12 mi
Weather by CustomWeather, © 2014

See weather overviewHow to use our weather pages